• In Russia
  • List of Countries
  • For 7 days
  • Water Temperature
  • Weather Map
  • Weather Widgets
  • user-avatar
    Login

    Hourly Weather Armawir

    Today, 7 April, Tuesday

    Time Temperature Precipitation Wind Pressure Humidity
    00:00 +10°C° 0.1 mm 0 mps 687 mmHg 82%
    01:00 +10°C° 0.2 mm 0 mps 687 mmHg 82%
    02:00 +10°C° 0.2 mm 0 mps 687 mmHg 82%
    03:00 +10°C° 0 mm 0 mps 687 mmHg 84%
    04:00 +11°C° 0.2 mm 1 mps 687 mmHg 83%
    05:00 +10°C° 0.2 mm 2 mps 687 mmHg 81%
    06:00 +9°C° 0.2 mm 3 mps 687 mmHg 80%
    07:00 +10°C° 0.3 mm 3 mps 687 mmHg 77%
    08:00 +10°C° 0.3 mm 2 mps 688 mmHg 74%
    09:00 +10°C° 0 mm 2 mps 688 mmHg 70%
    10:00 +10°C° 0 mm 2 mps 688 mmHg 67%
    11:00 +12°C° 0 mm 2 mps 688 mmHg 63%
    12:00 +12°C° 0 mm 2 mps 689 mmHg 60%
    13:00 +13°C° 0 mm 2 mps 689 mmHg 56%
    14:00 +14°C° 0 mm 2 mps 689 mmHg 53%
    15:00 +14°C° 0 mm 2 mps 689 mmHg 49%
    16:00 +12°C° 0 mm 3 mps 689 mmHg 53%
    17:00 +11°C° 0 mm 4 mps 689 mmHg 57%
    18:00 +9°C° 0 mm 5 mps 689 mmHg 61%
    19:00 +8°C° 0 mm 4 mps 689 mmHg 62%
    20:00 +7°C° 0 mm 4 mps 690 mmHg 62%
    21:00 +7°C° 0 mm 3 mps 690 mmHg 63%
    22:00 +7°C° 0 mm 3 mps 690 mmHg 62%
    23:00 +5°C° 0 mm 3 mps 691 mmHg 60%

    Tomorrow, 8 April, Wednesday

    Time Temperature Precipitation Wind Pressure Humidity
    00:00 +5°C° 0 mm 3 mps 691 mmHg 58%
    01:00 +5°C° 0 mm 2 mps 691 mmHg 58%
    02:00 +5°C° 0 mm 2 mps 691 mmHg 57%
    03:00 +5°C° 0 mm 2 mps 691 mmHg 56%
    04:00 +5°C° 0 mm 1 mps 692 mmHg 58%
    05:00 +5°C° 0 mm 1 mps 692 mmHg 59%
    06:00 +5°C° 0 mm 1 mps 692 mmHg 60%
    07:00 +6°C° 0 mm 1 mps 692 mmHg 56%
    08:00 +7°C° 0 mm 1 mps 693 mmHg 52%
    09:00 +8°C° 0 mm 1 mps 693 mmHg 48%
    10:00 +8°C° 0 mm 2 mps 693 mmHg 45%
    11:00 +9°C° 0 mm 2 mps 692 mmHg 42%
    12:00 +12°C° 0 mm 2 mps 692 mmHg 39%
    13:00 +11°C° 0 mm 3 mps 692 mmHg 37%
    14:00 +12°C° 0 mm 3 mps 691 mmHg 36%
    15:00 +13°C° 0 mm 3 mps 691 mmHg 34%
    16:00 +12°C° 0 mm 3 mps 691 mmHg 36%
    17:00 +12°C° 0 mm 4 mps 691 mmHg 38%
    18:00 +11°C° 0 mm 4 mps 691 mmHg 40%
    19:00 +10°C° 0 mm 4 mps 691 mmHg 44%
    20:00 +9°C° 0 mm 3 mps 692 mmHg 47%
    21:00 +8°C° 0 mm 3 mps 692 mmHg 51%
    22:00 +7°C° 0 mm 3 mps 692 mmHg 52%
    23:00 +6°C° 0 mm 2 mps 691 mmHg 54%

    Day after tomorrow, 9 April, Thursday

    Time Temperature Precipitation Wind Pressure Humidity
    00:00 +6°C° 0 mm 2 mps 691 mmHg 55%
    01:00 +5°C° 0 mm 2 mps 690 mmHg 57%
    02:00 +6°C° 0 mm 1 mps 690 mmHg 58%
    03:00 +5°C° 0 mm 1 mps 689 mmHg 60%
    04:00 +5°C° 0 mm 1 mps 689 mmHg 61%
    05:00 +5°C° 0 mm 1 mps 688 mmHg 62%
    06:00 +5°C° 0 mm 1 mps 688 mmHg 63%
    07:00 +6°C° 0 mm 1 mps 687 mmHg 58%
    08:00 +8°C° 0 mm 1 mps 687 mmHg 53%
    09:00 +8°C° 0 mm 2 mps 686 mmHg 48%
    10:00 +9°C° 0 mm 2 mps 686 mmHg 45%
    11:00 +10°C° 0 mm 2 mps 685 mmHg 42%
    12:00 +13°C° 0 mm 2 mps 685 mmHg 39%
    13:00 +14°C° 0 mm 2 mps 685 mmHg 38%
    14:00 +14°C° 0 mm 2 mps 684 mmHg 37%
    15:00 +15°C° 0 mm 2 mps 684 mmHg 36%
    16:00 +15°C° 0 mm 2 mps 684 mmHg 37%
    17:00 +15°C° 0 mm 2 mps 684 mmHg 39%
    18:00 +15°C° 0 mm 2 mps 684 mmHg 40%
    19:00 +14°C° 0 mm 1 mps 684 mmHg 44%
    20:00 +13°C° 0 mm 1 mps 684 mmHg 48%
    21:00 +11°C° 0 mm 1 mps 684 mmHg 52%
    22:00 +11°C° 0 mm 1 mps 684 mmHg 53%
    23:00 +10°C° 0 mm 0 mps 684 mmHg 55%

    10 April, Friday

    Time Temperature Precipitation Wind Pressure Humidity
    00:00 +9°C° 0 mm 0 mps 683 mmHg 56%
    01:00 +9°C° 0 mm 0 mps 683 mmHg 57%
    02:00 +8°C° 0 mm 0 mps 683 mmHg 59%
    03:00 +8°C° 0 mm 0 mps 682 mmHg 60%
    04:00 +9°C° 0 mm 1 mps 682 mmHg 61%
    05:00 +9°C° 0 mm 1 mps 682 mmHg 62%
    06:00 +9°C° 0 mm 1 mps 682 mmHg 64%
    07:00 +10°C° 0 mm 1 mps 682 mmHg 58%
    08:00 +12°C° 0 mm 1 mps 682 mmHg 52%
    09:00 +14°C° 0 mm 1 mps 682 mmHg 46%
    10:00 +15°C° 0 mm 1 mps 682 mmHg 44%
    11:00 +16°C° 0 mm 2 mps 682 mmHg 42%
    12:00 +17°C° 0 mm 2 mps 682 mmHg 40%
    13:00 +18°C° 0 mm 2 mps 681 mmHg 38%
    14:00 +19°C° 0 mm 2 mps 681 mmHg 37%
    15:00 +19°C° 0 mm 2 mps 681 mmHg 35%
    16:00 +19°C° 0 mm 2 mps 681 mmHg 37%
    17:00 +18°C° 0 mm 3 mps 681 mmHg 39%
    18:00 +18°C° 0 mm 3 mps 681 mmHg 40%
    19:00 +16°C° 0.2 mm 3 mps 682 mmHg 46%
    20:00 +14°C° 0.2 mm 3 mps 682 mmHg 53%
    21:00 +13°C° 0.2 mm 3 mps 682 mmHg 59%
    22:00 +12°C° 0.2 mm 3 mps 682 mmHg 60%
    23:00 +12°C° 0.2 mm 3 mps 682 mmHg 62%

    11 April, Saturday

    Time Temperature Precipitation Wind Pressure Humidity
    00:00 +11°C° 0.2 mm 3 mps 682 mmHg 64%
    01:00 +11°C° 0.1 mm 3 mps 681 mmHg 66%
    02:00 +10°C° 0.1 mm 3 mps 681 mmHg 69%
    03:00 +10°C° 0.1 mm 3 mps 681 mmHg 71%
    04:00 +10°C° 0.1 mm 2 mps 681 mmHg 73%
    05:00 +9°C° 0.1 mm 2 mps 681 mmHg 74%
    06:00 +10°C° 0.1 mm 1 mps 681 mmHg 76%
    07:00 +11°C° 0 mm 1 mps 681 mmHg 73%
    08:00 +11°C° 0 mm 1 mps 681 mmHg 70%
    09:00 +10°C° 0 mm 2 mps 681 mmHg 67%
    10:00 +12°C° 0 mm 2 mps 681 mmHg 62%
    11:00 +14°C° 0 mm 2 mps 681 mmHg 57%
    12:00 +15°C° 0 mm 2 mps 681 mmHg 51%
    13:00 +14°C° 0.1 mm 3 mps 681 mmHg 50%
    14:00 +15°C° 0.1 mm 4 mps 682 mmHg 48%
    15:00 +15°C° 0.1 mm 4 mps 682 mmHg 46%
    16:00 +14°C° 0.1 mm 5 mps 682 mmHg 47%
    17:00 +14°C° 0.1 mm 5 mps 682 mmHg 48%
    18:00 +13°C° 0.1 mm 5 mps 682 mmHg 49%
    19:00 +12°C° 0 mm 5 mps 683 mmHg 49%
    20:00 +10°C° 0 mm 5 mps 683 mmHg 50%
    21:00 +10°C° 0 mm 4 mps 684 mmHg 51%
    22:00 +8°C° 0 mm 4 mps 684 mmHg 51%
    23:00 +8°C° 0 mm 4 mps 685 mmHg 51%

    12 April, Sunday

    Time Temperature Precipitation Wind Pressure Humidity
    00:00 +7°C° 0 mm 4 mps 685 mmHg 52%
    01:00 +7°C° 0 mm 4 mps 685 mmHg 52%
    02:00 +6°C° 0 mm 4 mps 685 mmHg 51%
    03:00 +6°C° 0 mm 4 mps 685 mmHg 51%
    04:00 +5°C° 0 mm 4 mps 685 mmHg 52%
    05:00 +5°C° 0 mm 4 mps 686 mmHg 53%
    06:00 +4°C° 0 mm 4 mps 686 mmHg 53%
    07:00 +6°C° 0 mm 4 mps 686 mmHg 48%
    08:00 +8°C° 0 mm 4 mps 687 mmHg 42%
    09:00 +10°C° 0 mm 4 mps 687 mmHg 37%
    10:00 +12°C° 0 mm 3 mps 687 mmHg 34%
    11:00 +13°C° 0 mm 3 mps 687 mmHg 30%
    12:00 +15°C° 0 mm 2 mps 686 mmHg 27%
    13:00 +16°C° 0 mm 2 mps 686 mmHg 25%
    14:00 +16°C° 0 mm 1 mps 686 mmHg 24%
    15:00 +18°C° 0 mm 1 mps 686 mmHg 22%
    16:00 +18°C° 0 mm 1 mps 686 mmHg 24%
    17:00 +16°C° 0 mm 1 mps 686 mmHg 26%
    18:00 +15°C° 0 mm 0 mps 686 mmHg 28%
    19:00 +15°C° 0 mm 1 mps 687 mmHg 31%
    20:00 +13°C° 0 mm 1 mps 687 mmHg 34%
    21:00 +12°C° 0 mm 2 mps 688 mmHg 36%
    22:00 +10°C° 0 mm 2 mps 688 mmHg 41%
    23:00 +10°C° 0 mm 2 mps 687 mmHg 45%
    Show more